EN

Hourly Weather Godzieby

Today, 16 May, Sunday

Time Temperature Precipitation Wind Pressure Humidity
00:00 +9°C° 0 mm 2 mps 742 mmHg 86%
01:00 +9°C° 0 mm 2 mps 742 mmHg 88%
02:00 +9°C° 0 mm 2 mps 742 mmHg 90%
03:00 +9°C° 0 mm 3 mps 742 mmHg 90%
04:00 +9°C° 0 mm 3 mps 741 mmHg 90%
05:00 +9°C° 0 mm 3 mps 741 mmHg 90%
06:00 +10°C° 0.1 mm 3 mps 741 mmHg 88%
07:00 +11°C° 0.1 mm 3 mps 741 mmHg 87%
08:00 +13°C° 0.1 mm 4 mps 741 mmHg 85%
09:00 +13°C° 0.2 mm 4 mps 741 mmHg 85%
10:00 +14°C° 0.2 mm 5 mps 741 mmHg 85%
11:00 +14°C° 0.2 mm 5 mps 741 mmHg 85%
12:00 +15°C° 0.4 mm 5 mps 741 mmHg 81%
13:00 +16°C° 0.4 mm 5 mps 741 mmHg 77%
14:00 +17°C° 0.4 mm 5 mps 740 mmHg 73%
15:00 +17°C° 0.5 mm 5 mps 740 mmHg 75%
16:00 +17°C° 0.5 mm 5 mps 740 mmHg 77%
17:00 +18°C° 0.5 mm 4 mps 740 mmHg 79%
18:00 +17°C° 0.7 mm 4 mps 740 mmHg 83%
19:00 +16°C° 0.7 mm 3 mps 739 mmHg 86%
20:00 +13°C° 0.7 mm 3 mps 739 mmHg 90%
21:00 +13°C° 0.1 mm 3 mps 739 mmHg 91%
22:00 +13°C° 0.1 mm 3 mps 739 mmHg 92%
23:00 +12°C° 0.1 mm 3 mps 739 mmHg 92%

Tomorrow, 17 May, Monday

Time Temperature Precipitation Wind Pressure Humidity
00:00 +12°C° 0.1 mm 3 mps 740 mmHg 93%
01:00 +12°C° 0.1 mm 2 mps 740 mmHg 94%
02:00 +12°C° 0.1 mm 2 mps 740 mmHg 95%
03:00 +12°C° 0.1 mm 2 mps 740 mmHg 95%
04:00 +10°C° 0.1 mm 2 mps 740 mmHg 95%
05:00 +10°C° 0.1 mm 2 mps 740 mmHg 95%
06:00 +12°C° 0 mm 2 mps 740 mmHg 91%
07:00 +13°C° 0 mm 2 mps 741 mmHg 87%
08:00 +15°C° 0 mm 2 mps 741 mmHg 84%
09:00 +16°C° 0 mm 2 mps 741 mmHg 76%
10:00 +17°C° 0 mm 2 mps 741 mmHg 68%
11:00 +18°C° 0 mm 2 mps 741 mmHg 61%
12:00 +19°C° 0 mm 2 mps 740 mmHg 58%
13:00 +20°C° 0 mm 2 mps 740 mmHg 55%
14:00 +21°C° 0 mm 2 mps 740 mmHg 52%
15:00 +21°C° 0 mm 1 mps 740 mmHg 55%
16:00 +21°C° 0 mm 1 mps 739 mmHg 57%
17:00 +19°C° 0 mm 0 mps 739 mmHg 60%
18:00 +19°C° 0 mm 1 mps 739 mmHg 65%
19:00 +17°C° 0 mm 2 mps 739 mmHg 70%
20:00 +16°C° 0 mm 2 mps 738 mmHg 75%
21:00 +15°C° 0 mm 2 mps 738 mmHg 79%
22:00 +14°C° 0 mm 2 mps 738 mmHg 82%
23:00 +13°C° 0 mm 2 mps 738 mmHg 86%

Day after tomorrow, 18 May, Tuesday

Time Temperature Precipitation Wind Pressure Humidity
00:00 +13°C° 0 mm 2 mps 737 mmHg 87%
01:00 +12°C° 0 mm 2 mps 737 mmHg 89%
02:00 +12°C° 0 mm 2 mps 737 mmHg 91%
03:00 +12°C° 0 mm 2 mps 737 mmHg 92%
04:00 +10°C° 0 mm 2 mps 737 mmHg 92%
05:00 +10°C° 0 mm 2 mps 736 mmHg 93%
06:00 +11°C° 0 mm 3 mps 736 mmHg 88%
07:00 +13°C° 0 mm 3 mps 736 mmHg 84%
08:00 +14°C° 0 mm 4 mps 736 mmHg 79%
09:00 +15°C° 0 mm 4 mps 737 mmHg 76%
10:00 +16°C° 0 mm 5 mps 737 mmHg 74%
11:00 +16°C° 0 mm 5 mps 737 mmHg 71%
12:00 +16°C° 0.2 mm 6 mps 737 mmHg 74%
13:00 +15°C° 0.2 mm 7 mps 738 mmHg 76%
14:00 +15°C° 0.2 mm 7 mps 738 mmHg 78%
15:00 +14°C° 0 mm 7 mps 738 mmHg 78%
16:00 +14°C° 0 mm 7 mps 739 mmHg 78%
17:00 +14°C° 0 mm 7 mps 739 mmHg 79%
18:00 +13°C° 0 mm 6 mps 739 mmHg 80%
19:00 +11°C° 0 mm 6 mps 740 mmHg 81%
20:00 +10°C° 0 mm 5 mps 740 mmHg 83%
21:00 +9°C° 0 mm 5 mps 740 mmHg 84%
22:00 +9°C° 0 mm 5 mps 740 mmHg 85%
23:00 +8°C° 0 mm 4 mps 741 mmHg 87%

19 May, Wednesday

Time Temperature Precipitation Wind Pressure Humidity
00:00 +8°C° 0 mm 4 mps 741 mmHg 87%
01:00 +8°C° 0 mm 4 mps 741 mmHg 88%
02:00 +8°C° 0 mm 4 mps 741 mmHg 89%
03:00 +8°C° 0 mm 4 mps 741 mmHg 90%
04:00 +7°C° 0 mm 4 mps 741 mmHg 91%
05:00 +7°C° 0 mm 4 mps 742 mmHg 92%
06:00 +8°C° 0 mm 4 mps 742 mmHg 90%
07:00 +9°C° 0 mm 5 mps 742 mmHg 88%
08:00 +9°C° 0 mm 5 mps 742 mmHg 86%
09:00 +10°C° 0 mm 5 mps 742 mmHg 81%
10:00 +12°C° 0 mm 5 mps 742 mmHg 76%
11:00 +13°C° 0 mm 5 mps 743 mmHg 72%
12:00 +13°C° 0.1 mm 5 mps 742 mmHg 71%
13:00 +14°C° 0.1 mm 5 mps 742 mmHg 69%
14:00 +14°C° 0.1 mm 5 mps 742 mmHg 68%
15:00 +15°C° 0.1 mm 5 mps 742 mmHg 67%
16:00 +15°C° 0.1 mm 5 mps 742 mmHg 66%
17:00 +15°C° 0.1 mm 5 mps 742 mmHg 65%
18:00 +14°C° 0 mm 4 mps 742 mmHg 71%
19:00 +12°C° 0 mm 4 mps 743 mmHg 76%
20:00 +11°C° 0 mm 3 mps 743 mmHg 81%
21:00 +10°C° 0 mm 3 mps 743 mmHg 84%
22:00 +8°C° 0 mm 4 mps 743 mmHg 88%
23:00 +6°C° 0 mm 4 mps 743 mmHg 91%

20 May, Thursday

Time Temperature Precipitation Wind Pressure Humidity
00:00 +5°C° 0 mm 3 mps 743 mmHg 91%
01:00 +5°C° 0 mm 3 mps 743 mmHg 91%
02:00 +4°C° 0 mm 3 mps 744 mmHg 91%
03:00 +3°C° 0 mm 3 mps 744 mmHg 92%
04:00 +3°C° 0 mm 3 mps 744 mmHg 92%
05:00 +3°C° 0 mm 3 mps 744 mmHg 93%
06:00 +5°C° 0 mm 3 mps 744 mmHg 87%
07:00 +7°C° 0 mm 4 mps 744 mmHg 81%
08:00 +10°C° 0 mm 4 mps 744 mmHg 74%
09:00 +11°C° 0 mm 4 mps 744 mmHg 70%
10:00 +13°C° 0 mm 5 mps 744 mmHg 67%
11:00 +14°C° 0 mm 5 mps 744 mmHg 63%
12:00 +15°C° 0.1 mm 5 mps 744 mmHg 61%
13:00 +15°C° 0.1 mm 5 mps 744 mmHg 59%
14:00 +16°C° 0.1 mm 5 mps 744 mmHg 57%
15:00 +15°C° 0.2 mm 4 mps 744 mmHg 61%
16:00 +15°C° 0.2 mm 4 mps 744 mmHg 65%
17:00 +15°C° 0.2 mm 4 mps 744 mmHg 69%
18:00 +13°C° 0.1 mm 3 mps 745 mmHg 73%
19:00 +12°C° 0.1 mm 3 mps 745 mmHg 77%
20:00 +11°C° 0.1 mm 3 mps 745 mmHg 82%
21:00 +10°C° 0 mm 3 mps 745 mmHg 84%
22:00 +9°C° 0 mm 2 mps 746 mmHg 87%
23:00 +8°C° 0 mm 2 mps 746 mmHg 89%

21 May, Friday

Time Temperature Precipitation Wind Pressure Humidity
00:00 +7°C° 0 mm 2 mps 746 mmHg 90%
01:00 +7°C° 0 mm 2 mps 746 mmHg 91%
02:00 +6°C° 0 mm 2 mps 746 mmHg 92%
03:00 +6°C° 0 mm 2 mps 746 mmHg 92%
04:00 +6°C° 0 mm 2 mps 746 mmHg 92%
05:00 +6°C° 0 mm 1 mps 746 mmHg 91%
06:00 +7°C° 0 mm 2 mps 746 mmHg 87%
07:00 +9°C° 0 mm 3 mps 746 mmHg 82%
08:00 +11°C° 0 mm 3 mps 746 mmHg 78%
09:00 +12°C° 0.1 mm 4 mps 746 mmHg 72%
10:00 +13°C° 0.1 mm 4 mps 746 mmHg 67%
11:00 +14°C° 0.1 mm 5 mps 746 mmHg 62%
12:00 +14°C° 0.1 mm 5 mps 746 mmHg 61%
13:00 +14°C° 0.1 mm 5 mps 746 mmHg 59%
14:00 +14°C° 0.1 mm 5 mps 745 mmHg 58%
15:00 +14°C° 0 mm 4 mps 745 mmHg 58%
16:00 +14°C° 0 mm 4 mps 745 mmHg 58%
17:00 +15°C° 0 mm 4 mps 745 mmHg 58%
18:00 +13°C° 0 mm 3 mps 745 mmHg 64%
19:00 +12°C° 0 mm 3 mps 745 mmHg 70%
20:00 +12°C° 0 mm 2 mps 745 mmHg 76%
21:00 +10°C° 0 mm 3 mps 745 mmHg 78%
22:00 +10°C° 0 mm 3 mps 745 mmHg 80%
23:00 +10°C° 0 mm 3 mps 745 mmHg 83%
Show more